This demonstration page uses our WeatherBlox Daily Observations layout. Learn more.

Left ArrowRight Arrow

41.86663, -103.66717

Hourly Observations for January 3, 2017

Temp ( °F °C ) Dew Point ( °F °C ) Humidity (%) Winds ( mph kmh ) Pressure ( in mb ) Visibility ( mi km ) Precip ( " mm )
12:53 am 00:53 Cloudy 9 -12.8 0 -17.8 66 66 NW 14 22 30.30 1026 10 16 0.00 0.00
1:53 am 01:53 Cloudy 9 -12.8 1 -17.2 70 70 NW 10 17 30.32 1027 9 14 0.00 0.00
2:53 am 02:53 Cloudy 8 -13.3 1 -17.2 73 73 NW 10 17 30.33 1027 7 11 0.00 0.00
3:53 am 03:53 Cloudy 8 -13.3 -1 -18.3 66 66 NW 10 17 30.35 1028 10 16 0.00 0.00
4:53 am 04:53 Cloudy 8 -13.3 -2 -18.9 63 63 NW 13 20 30.38 1029 10 16 0.00 0.00
5:53 am 05:53 Cloudy 8 -13.3 -2 -18.9 63 63 NW 10 17 30.41 1030 10 16 0.00 0.00
6:53 am 06:53 Cloudy 8 -13.3 -2 -18.9 63 63 NNW 9 15 30.42 1030 10 16 0.00 0.00
7:53 am 07:53 Cloudy 8 -13.3 -2 -18.9 63 63 NW 8 13 30.44 1031 10 16 0.00 0.00
8:53 am 08:53 Cloudy 9 -12.8 -1 -18.3 64 64 NNW 6 9 30.47 1032 10 16 0.00 0.00
9:53 am 09:53 Cloudy 10 -12.2 -1 -18.3 61 61 N 7 11 30.47 1032 10 16 0.00 0.00
10:53 am 10:53 Mostly Sunny 11 -11.7 0 -17.8 61 61 NW 5 7 30.45 1031 10 16 0.00 0.00
11:53 am 11:53 Cloudy 12 -11.1 0 -17.8 58 58 NW 6 9 30.43 1030 10 16 0.00 0.00
12:53 pm 12:53 Mostly Sunny 13 -10.6 0 -17.8 56 56 Calm 30.40 1030 10 16 0.00 0.00
1:53 pm 13:53 Sunny 13 -10.6 0 -17.8 56 56 Calm 30.39 1029 10 16 0.00 0.00
2:53 pm 14:53 Mostly Sunny 14 -10 1 -17.2 56 56 Calm 30.37 1029 10 16 0.00 0.00
3:53 pm 15:53 Mostly Cloudy 12 -11.1 1 -17.2 61 61 ENE 8 13 30.39 1029 10 16 0.00 0.00
4:53 pm 16:53 Cloudy 12 -11.1 1 -17.2 61 61 E 6 9 30.39 1029 10 16 0.00 0.00
5:53 pm 17:53 Mostly Cloudy 11 -11.7 1 -17.2 64 64 E 7 11 30.37 1029 10 16 0.00 0.00
6:53 pm 18:53 Cloudy with Light Snow 11 -11.7 2 -16.7 67 67 E 6 9 30.39 1029 3 5 0.00 0.00
6:58 pm 18:58 Cloudy with Light Snow 10 -12 3 -16 72 72 E 6 9 30.48 1032 2 3 0.00 0.00
7:09 pm 19:09 Cloudy with Light Snow 11 -11.7 3 -16.1 70 70 E 6 9 30.48 1032 3 5 0.00 0.00
7:16 pm 19:16 Cloudy with Light Snow 10 -12 3 -16 72 72 E 6 9 30.48 1032 3 5 0.00 0.00
7:21 pm 19:21 Cloudy with Light Snow 11 -11.7 4 -15.6 73 73 E 7 11 30.48 1032 2 3 0.00 0.00
7:44 pm 19:44 Mostly Cloudy with Light Snow 10 -12 5 -15 79 79 ESE 8 13 30.48 1032 1 2 0.00 0.00
7:53 pm 19:53 Cloudy with Light Snow 10 -12.2 5 -15 80 80 ESE 7 11 30.38 1029 1 2 0.02 0.51
8:01 pm 20:01 Mostly Cloudy with Light Snow 10 -12.2 5 -15 80 80 ESE 9 15 30.48 1032 1 1 0.00 0.00
8:23 pm 20:23 Mostly Cloudy with Light Snow 10 -12.2 5 -15 80 80 ESE 7 11 30.48 1032 1 2 0.02 0.51
8:44 pm 20:44 Mostly Cloudy with Light Snow 10 -12 5 -15 79 79 E 9 15 30.48 1032 1 1 0.00 0.00
8:53 pm 20:53 Mostly Cloudy with Light Snow 10 -12.2 5 -15 80 80 E 7 11 30.37 1029 1 1 0.04 1.02
9:00 pm 21:00 Mostly Cloudy with Light Snow 9 -13 5 -15 85 85 E 8 13 30.50 1033 1 1 0.00 0.00
9:50 pm 21:50 Mostly Cloudy with Light Snow 9 -13 3 -16 78 78 E 9 15 30.50 1033 1 2 0.00 0.00
9:53 pm 21:53 Mostly Cloudy with Light Snow 9 -12.8 4 -15.6 80 80 E 8 13 30.37 1028 1 2 0.05 1.27
10:06 pm 22:06 Mostly Cloudy with Light Snow 9 -13 3 -16 78 78 E 10 17 30.48 1032 1 1 0.00 0.00
10:16 pm 22:16 Mostly Cloudy with Light Snow 9 -13 3 -16 78 78 E 9 15 30.48 1032 1 2 0.00 0.00
10:36 pm 22:36 Cloudy with Light Snow 9 -13 3 -16 78 78 E 8 13 30.50 1033 1 2 0.00 0.00
10:53 pm 22:53 Cloudy with Light Snow 9 -12.8 4 -15.6 80 80 E 8 13 30.38 1029 1 2 0.03 0.76
11:53 pm 23:53 Cloudy with Light Snow 9 -12.8 4 -15.6 80 80 E 8 13 30.35 1028 2 2 0.02 0.51

Powered by AerisWeather